Time,TemperatureF,DewpointF,PressureIn,WindDirection,WindDirectionDegrees,WindSpeedMPH,WindSpeedGustMPH,Humidity,HourlyPrecipIn,Conditions,Clouds,dailyrainin,SoftwareType,DateUTC
2013-01-22 00:10:00,36.0,11.0,29.99,WNW,286,2.0,12.0,35,0.00,,,0.00,weatherlink.com 1.10,2013-01-22 05:10:00,
2013-01-22 00:25:00,35.4,10.0,29.99,WNW,289,5.0,14.0,35,0.00,,,0.00,weatherlink.com 1.10,2013-01-22 05:25:00,
2013-01-22 00:40:00,35.0,9.0,30.00,West,271,6.0,16.0,34,0.00,,,0.00,weatherlink.com 1.10,2013-01-22 05:40:00,
2013-01-22 00:55:00,34.6,8.0,30.00,WSW,248,4.0,14.0,33,0.00,,,0.00,weatherlink.com 1.10,2013-01-22 05:55:00,
2013-01-22 01:10:00,34.0,7.0,30.00,WNW,296,9.0,14.0,32,0.00,,,0.00,weatherlink.com 1.10,2013-01-22 06:10:00,
2013-01-22 01:25:00,33.6,6.0,30.00,West,265,4.0,14.0,31,0.00,,,0.00,weatherlink.com 1.10,2013-01-22 06:25:00,
2013-01-22 01:40:00,33.0,5.0,30.02,WNW,294,11.0,15.0,30,0.00,,,0.00,weatherlink.com 1.10,2013-01-22 06:40:00,
2013-01-22 01:55:00,32.5,4.0,30.02,West,259,4.0,12.0,30,0.00,,,0.00,weatherlink.com 1.10,2013-01-22 06:55:00,
2013-01-22 02:10:00,32.2,3.0,30.03,West,278,6.0,19.0,29,0.00,,,0.00,weatherlink.com 1.10,2013-01-22 07:10:00,
2013-01-22 02:25:00,31.8,3.0,30.04,WNW,286,6.0,14.0,29,0.00,,,0.00,weatherlink.com 1.10,2013-01-22 07:25:00,
2013-01-22 02:40:00,31.3,2.0,30.04,West,279,7.0,14.0,29,0.00,,,0.00,weatherlink.com 1.10,2013-01-22 07:40:00,
2013-01-22 02:55:00,30.8,2.0,30.04,WSW,257,5.0,13.0,29,0.00,,,0.00,weatherlink.com 1.10,2013-01-22 07:55:00,
2013-01-22 03:10:00,30.4,3.0,30.05,WSW,257,6.0,13.0,31,0.00,,,0.00,weatherlink.com 1.10,2013-01-22 08:10:00,
2013-01-22 03:25:00,29.9,3.0,30.06,West,280,7.0,11.0,32,0.00,,,0.00,weatherlink.com 1.10,2013-01-22 08:25:00,
2013-01-22 03:40:00,29.5,4.0,30.06,NW,306,4.0,10.0,33,0.00,,,0.00,weatherlink.com 1.10,2013-01-22 08:40:00,
2013-01-22 03:55:00,29.0,4.0,30.07,NNW,347,3.0,9.0,34,0.00,,,0.00,weatherlink.com 1.10,2013-01-22 08:55:00,
2013-01-22 04:10:00,28.7,4.0,30.07,NNW,327,5.0,13.0,34,0.00,,,0.00,weatherlink.com 1.10,2013-01-22 09:10:00,
2013-01-22 04:26:00,28.4,3.0,30.07,West,275,4.0,7.0,33,0.00,,,0.00,weatherlink.com 1.10,2013-01-22 09:26:00,
2013-01-22 04:41:00,28.0,3.0,30.08,WNW,294,4.0,6.0,34,0.00,,,0.00,weatherlink.com 1.10,2013-01-22 09:41:00,
2013-01-22 04:56:00,27.5,4.0,30.09,SW,216,1.0,9.0,37,0.00,,,0.00,weatherlink.com 1.10,2013-01-22 09:56:00,
2013-01-22 05:11:00,27.2,3.0,30.10,NW,312,3.0,8.0,35,0.00,,,0.00,weatherlink.com 1.10,2013-01-22 10:11:00,
2013-01-22 05:26:00,26.9,2.0,30.10,NW,317,1.0,8.0,34,0.00,,,0.00,weatherlink.com 1.10,2013-01-22 10:26:00,
2013-01-22 05:41:00,26.1,5.0,30.11,NW,319,3.0,6.0,40,0.00,,,0.00,weatherlink.com 1.10,2013-01-22 10:41:00,
2013-01-22 05:56:00,25.4,6.0,30.12,NW,308,2.0,8.0,43,0.00,,,0.00,weatherlink.com 1.10,2013-01-22 10:56:00,
2013-01-22 06:11:00,24.9,6.0,30.13,West,279,2.0,9.0,44,0.00,,,0.00,weatherlink.com 1.10,2013-01-22 11:11:00,
2013-01-22 06:26:00,24.4,5.0,30.15,West,279,1.0,6.0,44,0.00,,,0.00,weatherlink.com 1.10,2013-01-22 11:26:00,
2013-01-22 06:56:00,23.7,4.0,30.16,NNW,333,3.0,4.0,43,0.00,,,0.00,weatherlink.com 1.10,2013-01-22 11:56:00,
2013-01-22 07:26:00,23.2,3.0,30.17,NNE,19,3.0,10.0,41,0.00,,,0.00,weatherlink.com 1.10,2013-01-22 12:26:00,
2013-01-22 07:41:00,23.0,2.0,30.18,WNW,283,2.0,5.0,41,0.00,,,0.00,weatherlink.com 1.10,2013-01-22 12:41:00,
2013-01-22 07:56:00,22.9,2.0,30.20,North,9,2.0,6.0,41,0.00,,,0.00,weatherlink.com 1.10,2013-01-22 12:56:00,
2013-01-22 08:11:00,22.9,2.0,30.20,NW,308,3.0,5.0,41,0.00,,,0.00,weatherlink.com 1.10,2013-01-22 13:11:00,
2013-01-22 08:26:00,23.2,3.0,30.21,NW,307,1.0,5.0,42,0.00,,,0.00,weatherlink.com 1.10,2013-01-22 13:26:00,
2013-01-22 08:41:00,23.5,2.0,30.21,NW,314,2.0,7.0,39,0.00,,,0.00,weatherlink.com 1.10,2013-01-22 13:41:00,
2013-01-22 08:56:00,23.6,1.0,30.23,West,279,2.0,11.0,38,0.00,,,0.00,weatherlink.com 1.10,2013-01-22 13:56:00,
2013-01-22 09:11:00,24.1,1.0,30.23,NNE,13,8.0,9.0,37,0.00,,,0.00,weatherlink.com 1.10,2013-01-22 14:11:00,
2013-01-22 09:26:00,25.1,0.0,30.24,NNW,348,6.0,8.0,34,0.00,,,0.00,weatherlink.com 1.10,2013-01-22 14:26:00,
2013-01-22 09:41:00,25.5,0.0,30.24,NE,39,4.0,10.0,33,0.00,,,0.00,weatherlink.com 1.10,2013-01-22 14:41:00,
2013-01-22 09:56:00,26.0,2.0,30.24,WNW,294,0.0,7.0,35,0.00,,,0.00,weatherlink.com 1.10,2013-01-22 14:56:00,
2013-01-22 10:11:00,26.6,0.0,30.24,NNW,338,1.0,10.0,32,0.00,,,0.00,weatherlink.com 1.10,2013-01-22 15:11:00,
2013-01-22 10:27:00,27.8,1.0,30.25,WSW,247,5.0,8.0,31,0.00,,,0.00,weatherlink.com 1.10,2013-01-22 15:27:00,
2013-01-22 10:42:00,28.4,0.0,30.25,NNE,24,3.0,7.0,29,0.00,,,0.00,weatherlink.com 1.10,2013-01-22 15:42:00,
2013-01-22 10:57:00,29.3,1.0,30.25,North,360,2.0,5.0,29,0.00,,,0.00,weatherlink.com 1.10,2013-01-22 15:57:00,
2013-01-22 11:12:00,29.3,0.0,30.25,WNW,292,3.0,6.0,28,0.00,,,0.00,weatherlink.com 1.10,2013-01-22 16:12:00,
2013-01-22 11:27:00,29.4,-1.0,30.24,WSW,257,4.0,7.0,27,0.00,,,0.00,weatherlink.com 1.10,2013-01-22 16:27:00,
2013-01-22 11:42:00,30.1,0.0,30.24,WNW,302,3.0,8.0,27,0.00,,,0.00,weatherlink.com 1.10,2013-01-22 16:42:00,
2013-01-22 11:57:00,31.0,0.0,30.23,North,5,4.0,8.0,26,0.00,,,0.00,weatherlink.com 1.10,2013-01-22 16:57:00,
2013-01-22 12:12:00,32.0,0.0,30.22,East,83,0.0,9.0,25,0.00,,,0.00,weatherlink.com 1.10,2013-01-22 17:12:00,
2013-01-22 12:27:00,32.5,1.0,30.21,SE,143,1.0,7.0,26,0.00,,,0.00,weatherlink.com 1.10,2013-01-22 17:27:00,
2013-01-22 12:42:00,33.5,0.0,30.21,WSW,241,2.0,7.0,24,0.00,,,0.00,weatherlink.com 1.10,2013-01-22 17:42:00,
2013-01-22 12:57:00,33.9,-1.0,30.20,WSW,246,2.0,8.0,22,0.00,,,0.00,weatherlink.com 1.10,2013-01-22 17:57:00,
2013-01-22 13:12:00,34.6,0.0,30.20,WNW,288,8.0,8.0,23,0.00,,,0.00,weatherlink.com 1.10,2013-01-22 18:12:00,
2013-01-22 13:27:00,33.6,-6.0,30.19,WSW,238,6.0,13.0,18,0.00,,,0.00,weatherlink.com 1.10,2013-01-22 18:27:00,
2013-01-22 13:42:00,34.2,-4.0,30.18,NW,321,6.0,13.0,19,0.00,,,0.00,weatherlink.com 1.10,2013-01-22 18:42:00,
2013-01-22 13:57:00,35.1,-4.0,30.18,West,279,6.0,11.0,19,0.00,,,0.00,weatherlink.com 1.10,2013-01-22 18:57:00,
2013-01-22 14:13:00,34.9,-4.0,30.18,West,265,6.0,10.0,19,0.00,,,0.00,weatherlink.com 1.10,2013-01-22 19:13:00,
2013-01-22 14:28:00,35.1,-2.0,30.18,WNW,301,9.0,13.0,20,0.00,,,0.00,weatherlink.com 1.10,2013-01-22 19:28:00,
2013-01-22 14:43:00,35.0,-2.0,30.18,WNW,297,12.0,12.0,20,0.00,,,0.00,weatherlink.com 1.10,2013-01-22 19:43:00,
2013-01-22 14:58:00,34.4,-4.0,30.19,West,260,6.0,12.0,19,0.00,,,0.00,weatherlink.com 1.10,2013-01-22 19:58:00,
2013-01-22 15:13:00,34.4,-3.0,30.19,WNW,298,8.0,11.0,20,0.00,,,0.00,weatherlink.com 1.10,2013-01-22 20:13:00,
2013-01-22 15:28:00,33.7,-5.0,30.19,WNW,284,6.0,20.0,19,0.00,,,0.00,weatherlink.com 1.10,2013-01-22 20:28:00,
2013-01-22 15:43:00,33.5,-6.0,30.19,WNW,293,8.0,17.0,18,0.00,,,0.00,weatherlink.com 1.10,2013-01-22 20:43:00,
2013-01-22 15:58:00,33.4,-6.0,30.20,West,277,7.0,12.0,18,0.00,,,0.00,weatherlink.com 1.10,2013-01-22 20:58:00,
2013-01-22 16:13:00,32.8,-7.0,30.20,WNW,283,7.0,10.0,18,0.00,,,0.00,weatherlink.com 1.10,2013-01-22 21:13:00,
2013-01-22 16:28:00,32.5,-6.0,30.20,West,276,4.0,10.0,19,0.00,,,0.00,weatherlink.com 1.10,2013-01-22 21:28:00,
2013-01-22 16:43:00,31.8,-5.0,30.21,WSW,256,4.0,12.0,20,0.00,,,0.00,weatherlink.com 1.10,2013-01-22 21:43:00,
2013-01-22 17:13:00,30.8,-6.0,30.20,WNW,291,3.0,11.0,20,0.00,,,0.00,weatherlink.com 1.10,2013-01-22 22:13:00,
2013-01-22 17:29:00,30.2,-6.0,30.22,WNW,288,3.0,7.0,21,0.00,,,0.00,weatherlink.com 1.10,2013-01-22 22:29:00,
2013-01-22 17:44:00,29.8,-5.0,30.23,NW,324,2.0,8.0,22,0.00,,,0.00,weatherlink.com 1.10,2013-01-22 22:44:00,
2013-01-22 17:59:00,29.4,-5.0,30.23,NW,320,3.0,8.0,22,0.00,,,0.00,weatherlink.com 1.10,2013-01-22 22:59:00,
2013-01-22 18:14:00,29.0,-5.0,30.24,WNW,300,4.0,7.0,23,0.00,,,0.00,weatherlink.com 1.10,2013-01-22 23:14:00,
2013-01-22 18:29:00,28.7,-3.0,30.24,WNW,294,2.0,7.0,25,0.00,,,0.00,weatherlink.com 1.10,2013-01-22 23:29:00,
2013-01-22 18:44:00,28.3,-4.0,30.25,WNW,298,8.0,8.0,24,0.00,,,0.00,weatherlink.com 1.10,2013-01-22 23:44:00,
2013-01-22 18:59:00,28.2,-4.0,30.24,WNW,285,3.0,8.0,25,0.00,,,0.00,weatherlink.com 1.10,2013-01-22 23:59:00,
2013-01-22 19:14:00,27.8,-4.0,30.24,WNW,285,4.0,6.0,25,0.00,,,0.00,weatherlink.com 1.10,2013-01-23 00:14:00,
2013-01-22 19:29:00,27.6,-4.0,30.23,NW,309,4.0,7.0,25,0.00,,,0.00,weatherlink.com 1.10,2013-01-23 00:29:00,
2013-01-22 19:44:00,27.4,-3.0,30.25,NNW,327,3.0,6.0,26,0.00,,,0.00,weatherlink.com 1.10,2013-01-23 00:44:00,
2013-01-22 19:59:00,26.9,-3.0,30.25,WNW,297,1.0,7.0,27,0.00,,,0.00,weatherlink.com 1.10,2013-01-23 00:59:00,
2013-01-22 20:14:00,26.4,-4.0,30.26,NW,315,1.0,5.0,27,0.00,,,0.00,weatherlink.com 1.10,2013-01-23 01:14:00,
2013-01-22 20:29:00,26.0,-3.0,30.26,NW,304,2.0,5.0,28,0.00,,,0.00,weatherlink.com 1.10,2013-01-23 01:29:00,
2013-01-22 20:44:00,25.4,-2.0,30.26,NNW,336,0.0,3.0,31,0.00,,,0.00,weatherlink.com 1.10,2013-01-23 01:44:00,
2013-01-22 21:00:00,24.8,-1.0,30.26,NW,313,0.0,9.0,33,0.00,,,0.00,weatherlink.com 1.10,2013-01-23 02:00:00,
2013-01-22 21:15:00,24.2,-1.0,30.27,ENE,66,0.0,3.0,33,0.00,,,0.00,weatherlink.com 1.10,2013-01-23 02:15:00,
2013-01-22 21:30:00,23.6,1.0,30.28,NNE,29,1.0,1.0,37,0.00,,,0.00,weatherlink.com 1.10,2013-01-23 02:30:00,
2013-01-22 21:45:00,23.1,1.0,30.29,WNW,292,0.0,2.0,38,0.00,,,0.00,weatherlink.com 1.10,2013-01-23 02:45:00,
2013-01-22 22:00:00,22.7,2.0,30.29,NNW,340,1.0,2.0,40,0.00,,,0.00,weatherlink.com 1.10,2013-01-23 03:00:00,
2013-01-22 22:15:00,22.3,-1.0,30.29,NNE,19,0.0,2.0,37,0.00,,,0.00,weatherlink.com 1.10,2013-01-23 03:15:00,
2013-01-22 22:30:00,21.9,2.0,30.30,North,355,0.0,2.0,42,0.00,,,0.00,weatherlink.com 1.10,2013-01-23 03:30:00,
2013-01-22 22:45:00,21.5,1.0,30.30,North,355,0.0,1.0,40,0.00,,,0.00,weatherlink.com 1.10,2013-01-23 03:45:00,
2013-01-22 23:00:00,21.1,1.0,30.30,North,355,0.0,1.0,42,0.00,,,0.00,weatherlink.com 1.10,2013-01-23 04:00:00,
2013-01-22 23:15:00,20.6,1.0,30.30,North,355,0.0,1.0,43,0.00,,,0.00,weatherlink.com 1.10,2013-01-23 04:15:00,
2013-01-22 23:30:00,20.0,1.0,30.30,North,355,0.0,0.0,43,0.00,,,0.00,weatherlink.com 1.10,2013-01-23 04:30:00,
2013-01-22 23:45:00,19.8,1.0,30.30,North,355,0.0,1.0,43,0.00,,,0.00,weatherlink.com 1.10,2013-01-23 04:45:00,